Location: Chèvreville
(49.1099°N, 2.8495°E)
Time: 16:14:20
(UTC+00:00)

RESURS DK-1 - Visible Passes

Search period start: 30 September 2023 00:00
Search period end: 10 October 2023 00:00
Orbit: 548 x 552 km, 69.9° (Epoch: 30 September)

Date Brightness Start Highest point End Pass type
(mag) Time Alt. Az. Time Alt. Az. Time Alt. Az.
30 Sep 4.7 03:04:51 15° NNW 03:04:51 15° NNW 03:06:12 10° N visible
01 Oct 4.9 03:00:31 13° NNW 03:00:31 13° NNW 03:01:26 10° N visible
02 Oct 5.1 02:56:09 11° NNW 02:56:09 11° NNW 02:56:36 10° N visible
